Weather in Saint Michel

Monaco     43°44′30″N   7°25′44″E
temp.,
°C
wind,
m/s
gust,
m/s
humid.,
%
clouds,
%
prec.,
mm/h
press.,
hPa
HPBL,
m
12 may, wed
wed1223:00+16n33720 0.0 100754
02:00+15n22670 0.0 100848
05:00+14w33632 0.0 1008143
08:00+14w45655 0.0 1009234
11:00+15ssw22735 0.0 1009215
14:00+15ese22731 0.1 1008173
17:00+17sw55611 0.0 1006244
20:00+18wsw79605 0.0 1005127
13 may, thu
thu1323:00+16ne6773100 0.0 1006261
02:00+16nnw117021 0.0 100635
05:00+15wsw34715 0.0 1006337
08:00+14ssw44786 0.0 1006457
11:00+15ssw327913 0.3 1006449
14:00+15ese11783 0.8 1005240
17:00+14ese22773 0.3 1004274
20:00+15e33764 0.3 1005277
14 may, fri
fri1423:00+15w01795 0.0 1006200
02:00+15w3474100 0.0 1006360
05:00+14ssw0166100 0.0 1006280
08:00+14e2270100 0.0 1007453
11:00+14se327777 0.1 1009497
14:00+14se3278100 0.4 1009403
17:00+14ese227239 0.3 1008395
20:00+15e446827 0.3 1008370
15 may, sat
sat1523:00+14n457297 0.6 1010353
02:00+14ne11624 1.1 1010172
05:00+14nw226441 0.0 1011228
08:00+14wnw2258100 0.0 1012171
11:00+15sw4367100 0.0 1013282
14:00+15s337399 0.0 1013380
17:00+15e3273100 0.0 1012262
20:00+16sse126641 0.0 1010168
16 may, sun
sun1623:00+15ne557290 0.0 1010351
02:00+14ene2272100 0.0 1011337
05:00+14ene2271100 0.0 1010261
08:00+15e336868 0.0 1010253
11:00+15ese44780 0.0 1011284
14:00+16ese44780 0.0 1011297
17:00+16ese55791 0.0 1010315
20:00+16e3379100 0.0 1010199